Hourly Weather Rudnaya Pristan

Today, 21 April, Wednesday

Time Temperature Precipitation Wind Pressure Humidity
00:00 +3°C° 0 mm 3 mps 762 mmHg 35%
01:00 +3°C° 0 mm 4 mps 762 mmHg 34%
02:00 +3°C° 0 mm 4 mps 762 mmHg 34%
03:00 +3°C° 0 mm 4 mps 762 mmHg 34%
04:00 +4°C° 0 mm 4 mps 762 mmHg 31%
05:00 +4°C° 0 mm 4 mps 762 mmHg 29%
06:00 +5°C° 0 mm 4 mps 763 mmHg 27%
07:00 +7°C° 0 mm 4 mps 762 mmHg 25%
08:00 +10°C° 0 mm 4 mps 762 mmHg 22%
09:00 +12°C° 0 mm 4 mps 763 mmHg 20%
10:00 +14°C° 0 mm 4 mps 762 mmHg 20%
11:00 +17°C° 0 mm 4 mps 762 mmHg 20%
12:00 +18°C° 0 mm 4 mps 762 mmHg 20%
13:00 +19°C° 0 mm 4 mps 762 mmHg 20%
14:00 +19°C° 0 mm 4 mps 762 mmHg 20%
15:00 +20°C° 0 mm 4 mps 762 mmHg 20%
16:00 +19°C° 0 mm 3 mps 762 mmHg 22%
17:00 +18°C° 0 mm 3 mps 762 mmHg 25%
18:00 +17°C° 0 mm 3 mps 763 mmHg 28%
19:00 +14°C° 0 mm 3 mps 763 mmHg 32%
20:00 +12°C° 0 mm 3 mps 764 mmHg 37%
21:00 +11°C° 0 mm 3 mps 764 mmHg 41%
22:00 +10°C° 0 mm 3 mps 764 mmHg 42%
23:00 +10°C° 0 mm 3 mps 765 mmHg 44%

Tomorrow, 22 April, Thursday

Time Temperature Precipitation Wind Pressure Humidity
00:00 +9°C° 0 mm 3 mps 765 mmHg 46%
01:00 +8°C° 0 mm 3 mps 766 mmHg 47%
02:00 +8°C° 0 mm 3 mps 766 mmHg 49%
03:00 +6°C° 0 mm 4 mps 767 mmHg 50%
04:00 +7°C° 0 mm 3 mps 767 mmHg 52%
05:00 +7°C° 0 mm 3 mps 768 mmHg 53%
06:00 +7°C° 0 mm 3 mps 769 mmHg 54%
07:00 +8°C° 0 mm 3 mps 769 mmHg 48%
08:00 +10°C° 0 mm 3 mps 769 mmHg 43%
09:00 +12°C° 0 mm 3 mps 770 mmHg 38%
10:00 +12°C° 0 mm 3 mps 770 mmHg 38%
11:00 +13°C° 0 mm 2 mps 770 mmHg 39%
12:00 +14°C° 0 mm 2 mps 770 mmHg 39%
13:00 +14°C° 0 mm 2 mps 770 mmHg 41%
14:00 +13°C° 0 mm 2 mps 770 mmHg 42%
15:00 +13°C° 0 mm 2 mps 769 mmHg 44%
16:00 +12°C° 0 mm 2 mps 770 mmHg 48%
17:00 +10°C° 0 mm 1 mps 770 mmHg 52%
18:00 +9°C° 0 mm 1 mps 770 mmHg 56%
19:00 +8°C° 0 mm 1 mps 770 mmHg 60%
20:00 +7°C° 0 mm 1 mps 770 mmHg 64%
21:00 +6°C° 0 mm 1 mps 770 mmHg 67%
22:00 +6°C° 0 mm 1 mps 770 mmHg 67%
23:00 +6°C° 0 mm 1 mps 770 mmHg 67%

Day after tomorrow, 23 April, Friday

Time Temperature Precipitation Wind Pressure Humidity
00:00 +6°C° 0 mm 1 mps 770 mmHg 67%
01:00 +5°C° 0 mm 2 mps 770 mmHg 66%
02:00 +5°C° 0 mm 2 mps 769 mmHg 65%
03:00 +6°C° 0 mm 2 mps 769 mmHg 64%
04:00 +6°C° 0 mm 2 mps 769 mmHg 62%
05:00 +7°C° 0 mm 2 mps 768 mmHg 61%
06:00 +8°C° 0 mm 2 mps 768 mmHg 59%
07:00 +12°C° 0 mm 2 mps 768 mmHg 52%
08:00 +15°C° 0 mm 2 mps 768 mmHg 46%
09:00 +18°C° 0 mm 2 mps 767 mmHg 40%
10:00 +19°C° 0 mm 3 mps 767 mmHg 37%
11:00 +20°C° 0 mm 3 mps 767 mmHg 35%
12:00 +21°C° 0 mm 4 mps 766 mmHg 33%
13:00 +22°C° 0 mm 4 mps 766 mmHg 32%
14:00 +22°C° 0 mm 3 mps 765 mmHg 31%
15:00 +22°C° 0 mm 3 mps 764 mmHg 31%
16:00 +21°C° 0 mm 3 mps 764 mmHg 34%
17:00 +20°C° 0 mm 2 mps 764 mmHg 37%
18:00 +19°C° 0 mm 2 mps 764 mmHg 41%
19:00 +18°C° 0 mm 2 mps 764 mmHg 43%
20:00 +17°C° 0 mm 2 mps 764 mmHg 46%
21:00 +16°C° 0 mm 2 mps 764 mmHg 48%
22:00 +16°C° 0 mm 3 mps 764 mmHg 52%
23:00 +14°C° 0 mm 3 mps 764 mmHg 56%

24 April, Saturday

Time Temperature Precipitation Wind Pressure Humidity
00:00 +14°C° 0 mm 3 mps 764 mmHg 60%
01:00 +14°C° 0 mm 3 mps 763 mmHg 61%
02:00 +14°C° 0 mm 3 mps 763 mmHg 63%
03:00 +13°C° 0 mm 3 mps 763 mmHg 65%
04:00 +13°C° 0 mm 3 mps 763 mmHg 67%
05:00 +13°C° 0 mm 3 mps 763 mmHg 69%
06:00 +14°C° 0 mm 2 mps 763 mmHg 72%
07:00 +14°C° 0 mm 3 mps 763 mmHg 66%
08:00 +16°C° 0 mm 3 mps 762 mmHg 60%
09:00 +17°C° 0 mm 4 mps 762 mmHg 54%
10:00 +17°C° 0 mm 4 mps 762 mmHg 54%
11:00 +16°C° 0 mm 5 mps 762 mmHg 54%
12:00 +15°C° 0 mm 5 mps 762 mmHg 54%
13:00 +14°C° 0 mm 5 mps 762 mmHg 55%
14:00 +12°C° 0 mm 5 mps 762 mmHg 57%
15:00 +10°C° 0 mm 5 mps 762 mmHg 59%
16:00 +11°C° 0.3 mm 4 mps 762 mmHg 55%
17:00 +10°C° 0.3 mm 3 mps 762 mmHg 51%
18:00 +10°C° 0.3 mm 2 mps 762 mmHg 47%
19:00 +8°C° 0 mm 2 mps 762 mmHg 48%
20:00 +7°C° 0 mm 2 mps 762 mmHg 50%
21:00 +7°C° 0 mm 1 mps 762 mmHg 51%
22:00 +6°C° 0 mm 2 mps 762 mmHg 48%
23:00 +6°C° 0 mm 2 mps 762 mmHg 46%

25 April, Sunday

Time Temperature Precipitation Wind Pressure Humidity
00:00 +5°C° 0 mm 2 mps 762 mmHg 43%
01:00 +4°C° 0 mm 3 mps 762 mmHg 45%
02:00 +3°C° 0 mm 3 mps 762 mmHg 47%
03:00 +3°C° 0 mm 3 mps 762 mmHg 49%
04:00 +3°C° 0 mm 3 mps 762 mmHg 48%
05:00 +3°C° 0 mm 3 mps 761 mmHg 47%
06:00 +4°C° 0 mm 3 mps 761 mmHg 46%
07:00 +5°C° 0 mm 4 mps 761 mmHg 40%
08:00 +7°C° 0 mm 5 mps 760 mmHg 35%
09:00 +9°C° 0 mm 6 mps 760 mmHg 29%
10:00 +9°C° 0 mm 6 mps 760 mmHg 26%
11:00 +9°C° 0 mm 6 mps 760 mmHg 23%
12:00 +10°C° 0 mm 7 mps 760 mmHg 20%
13:00 +10°C° 0 mm 6 mps 760 mmHg 19%
14:00 +10°C° 0 mm 6 mps 760 mmHg 19%
15:00 +10°C° 0 mm 6 mps 760 mmHg 19%
16:00 +10°C° 0 mm 5 mps 761 mmHg 21%
17:00 +10°C° 0 mm 4 mps 761 mmHg 24%
18:00 +10°C° 0 mm 4 mps 762 mmHg 27%
19:00 +8°C° 0 mm 3 mps 763 mmHg 36%
20:00 +5°C° 0 mm 3 mps 764 mmHg 45%
21:00 +4°C° 0 mm 2 mps 765 mmHg 55%
22:00 +3°C° 0 mm 2 mps 765 mmHg 56%
23:00 +4°C° 0 mm 1 mps 765 mmHg 57%

26 April, Monday

Time Temperature Precipitation Wind Pressure Humidity
00:00 +3°C° 0 mm 1 mps 766 mmHg 59%
01:00 +3°C° 0 mm 1 mps 766 mmHg 55%
02:00 +3°C° 0 mm 1 mps 766 mmHg 52%
03:00 +2°C° 0 mm 2 mps 766 mmHg 48%
04:00 +3°C° 0 mm 1 mps 766 mmHg 48%
05:00 +3°C° 0 mm 1 mps 766 mmHg 47%
06:00 +4°C° 0 mm 1 mps 767 mmHg 46%
07:00 +6°C° 0 mm 1 mps 767 mmHg 40%
08:00 +9°C° 0 mm 1 mps 767 mmHg 35%
09:00 +12°C° 0 mm 2 mps 767 mmHg 29%
10:00 +12°C° 0 mm 2 mps 766 mmHg 32%
11:00 +13°C° 0 mm 2 mps 766 mmHg 34%
12:00 +12°C° 0 mm 3 mps 766 mmHg 37%
13:00 +12°C° 0 mm 3 mps 766 mmHg 37%
14:00 +12°C° 0 mm 2 mps 766 mmHg 37%
15:00 +12°C° 0 mm 2 mps 765 mmHg 36%
16:00 +10°C° 0 mm 2 mps 765 mmHg 39%
17:00 +9°C° 0 mm 2 mps 765 mmHg 41%
18:00 +9°C° 0 mm 1 mps 765 mmHg 43%
19:00 +8°C° 0 mm 1 mps 765 mmHg 49%
20:00 +7°C° 0 mm 1 mps 765 mmHg 54%
21:00 +6°C° 0 mm 1 mps 765 mmHg 60%
22:00 +6°C° 0 mm 1 mps 765 mmHg 59%
23:00 +6°C° 0 mm 1 mps 765 mmHg 59%
Show more